Weather reports worldwide

Advertisment
Ramstein, Germany (10614): temperature & dewpoint: 16.01.2019 04:00:00 - 22.01.2019 04:00:00 (CET)Ramstein, Germany (10614): wind speed & gusts: 16.01.2019 04:00:00 - 22.01.2019 04:00:00 (CET)Ramstein, Germany (10614): wind direction: 16.01.2019 04:00:00 - 22.01.2019 04:00:00 (CET)Ramstein, Germany (10614): reduced air pressure: 16.01.2019 04:00:00 - 22.01.2019 04:00:00 (CET)Ramstein, Germany (10614): visibility: 16.01.2019 04:00:00 - 22.01.2019 04:00:00 (CET)Ramstein, Germany (10614): precipitation: 16.01.2019 04:00:00 - 22.01.2019 04:00:00 (CET)
Date & Time tt [°C] td [°C] ff [km/h] ff [kn] fx [km/h] fx [kn] dd ppp [hPa] vv [km] rr [mm]
22.01.2019 04:00:00 -10,6 -10,6 0 0 - - N 1018,3 10 -
22.01.2019 03:00:00 -10,3 -10,3 0 0 - - N 1019,2 10 -
22.01.2019 02:00:00 -10,3 -10,3 0 0 - - N 1019,5 10 -
22.01.2019 01:00:00 -11,2 -11,2 0 0 - - N 1020,7 10 -
22.01.2019 00:00:00 -10,6 -10,6 0 0 - - N 1020,8 10 -
21.01.2019 23:00:00 -8,7 -8,7 0 0 - - N 1021,4 10 -
21.01.2019 22:00:00 -8,7 -8,7 0 0 - - N 1021,8 10 -
21.01.2019 21:00:00 -8,2 -8,2 0 0 - - N 1022,2 10 -
21.01.2019 20:00:00 -7,7 -7,7 0 0 - - N 1022,2 10 -
21.01.2019 19:00:00 -5,7 -5,8 0 0 - - N 1021,7 10 -
21.01.2019 18:00:00 -4,7 -4,8 0 0 - - N 1022,5 10 -
21.01.2019 17:00:00 -1,8 -2,6 0 0 - - N 1022,0 10 -
21.01.2019 16:00:00 -0,2 -1,6 8 4 - - NNW 1021,9 10 -
21.01.2019 15:00:00 -0,1 -1,5 8 4 - - N 1022,6 10 -
21.01.2019 14:00:00 -0,5 -1,2 5 3 - - NNE 1023,0 10 -
21.01.2019 13:00:00 -1,3 -1,4 8 4 - - NE 1023,6 10 -
21.01.2019 12:00:00 -2,5 -2,5 9 5 - - NNE 1024,0 10 -
21.01.2019 11:00:00 -3,7 -3,7 8 4 - - NE 1024,8 10 -
21.01.2019 10:00:00 -5,0 -5,0 0 0 - - N 1024,4 10 -
21.01.2019 09:00:00 -5,4 -5,4 0 0 - - N 1024,2 10 -
21.01.2019 08:00:00 -5,7 -5,7 9 5 - - NNE 1023,8 10 -
21.01.2019 07:00:00 -6,9 -6,9 0 0 - - N 1023,4 10 -
21.01.2019 06:00:00 -9,1 -9,1 0 0 - - N 1023,1 10 -
21.01.2019 05:00:00 -11,0 -11,0 8 4 - - NE 1022,7 10 -
21.01.2019 04:00:00 -9,2 -9,2 0 0 - - N 1022,6 10 -
21.01.2019 03:00:00 -10,1 -10,1 0 0 - - N 1022,6 10 -
21.01.2019 02:00:00 -10,4 -10,4 0 0 - - N 1022,3 10 -
21.01.2019 01:00:00 -10,0 -10,0 0 0 - - N 1022,4 10 -
21.01.2019 00:00:00 -8,0 -8,0 0 0 - - N 1021,9 10 -
20.01.2019 23:00:00 -9,0 -9,0 0 0 - - N 1021,5 10 -
20.01.2019 22:00:00 -8,2 -8,2 0 0 - - N 1021,1 8 -
20.01.2019 21:00:00 -7,7 -7,7 0 0 - - N 1020,6 10 -
20.01.2019 20:00:00 -6,2 -6,2 0 0 - - N 1020,2 10 -
20.01.2019 19:00:00 -4,5 -4,5 5 3 - - ENE 1019,8 10 -
20.01.2019 18:00:00 -3,0 -3,1 13 7 - - NNE 1019,0 10 -
20.01.2019 17:00:00 -1,7 -1,8 11 6 - - NNE 1018,1 10 -
20.01.2019 16:00:00 -0,1 -0,4 15 8 - - N 1017,3 10 -
20.01.2019 15:00:00 0,1 -0,6 11 6 - - N 1016,9 10 -
20.01.2019 14:00:00 -1,7 -1,7 9 5 - - NE 1017,2 10 -
20.01.2019 13:00:00 -1,7 -1,7 8 4 - - NNE 1017,2 10 -
20.01.2019 12:00:00 -2,8 -2,8 8 4 - - NE 1017,2 10 -
20.01.2019 11:00:00 -4,4 -4,4 5 3 - - E 1017,2 10 -
20.01.2019 10:00:00 -6,2 -6,2 0 0 - - N 1016,9 10 -
20.01.2019 09:00:00 -8,8 -8,8 0 0 - - N 1016,4 10 -
20.01.2019 08:00:00 -9,3 -9,3 0 0 - - N 1015,6 10 -
20.01.2019 07:00:00 -9,4 -9,4 0 0 - - N 1015,3 10 -
20.01.2019 06:00:00 -8,8 -8,8 0 0 - - N 1014,9 10 -
20.01.2019 05:00:00 -7,1 -7,1 0 0 - - N 1014,6 10 -
20.01.2019 04:00:00 -6,6 -6,6 0 0 - - N 1014,9 10 -
20.01.2019 03:00:00 -5,6 -5,6 0 0 - - N 1014,8 10 -
20.01.2019 02:00:00 -6,2 -6,2 0 0 - - N 1014,8 10 -
20.01.2019 01:00:00 -8,0 -8,0 5 3 - - ENE 1014,9 10 -
20.01.2019 00:00:00 -7,9 -7,9 0 0 - - N 1015,3 10 -
19.01.2019 23:00:00 -6,1 -6,1 0 0 - - N 1014,9 10 -
19.01.2019 22:00:00 -6,4 -6,4 0 0 - - N 1015,3 10 -
19.01.2019 21:00:00 -6,1 -6,1 0 0 - - N 1015,4 10 -
19.01.2019 20:00:00 -3,7 -3,8 5 3 - - E 1015,3 10 -
19.01.2019 19:00:00 -4,3 -4,4 5 3 - - ENE 1015,3 10 -
19.01.2019 18:00:00 -3,5 -3,6 9 5 - - NE 1015,3 10 -
19.01.2019 17:00:00 1,2 -0,7 0 0 - - N 1015,1 10 -
19.01.2019 16:00:00 1,2 -0,7 18 10 - - ENE 1015,1 10 -
19.01.2019 15:00:00 2,4 -1,4 15 8 - - ENE 1015,4 10 -
19.01.2019 14:00:00 2,2 -0,2 11 6 - - NE 1016,1 10 -
19.01.2019 13:00:00 1,4 0,5 15 8 - - ENE 1016,8 10 -
19.01.2019 12:00:00 0,7 0,6 16 9 - - NE 1017,5 10 -
19.01.2019 11:00:00 0,0 0,0 13 7 - - NE 1018,0 10 -
19.01.2019 10:00:00 - - 0 0 - - N 1018,5 10 -
19.01.2019 09:00:00 -4,3 -4,3 0 0 - - N 1018,6 10 -
19.01.2019 08:00:00 -4,0 -6,0 0 0 - - N 1018,3 10 -
19.01.2019 07:00:00 -5,0 -7,0 0 0 - - N 1018,3 10 -
19.01.2019 06:00:00 -5,4 -7,0 0 0 - - N 1018,7 10 -
19.01.2019 05:00:00 -5,5 -6,0 8 4 - - ENE 1018,8 10 -
19.01.2019 04:00:00 -5,3 -7,0 5 3 - - NNE 1019,1 10 -
19.01.2019 03:00:00 -5,3 -7,0 8 4 - - E 1019,7 10 -
19.01.2019 02:00:00 -6,1 -8,0 5 3 - - E 1019,9 10 -
19.01.2019 01:00:00 -5,5 -6,0 5 3 - - E 1020,4 10 -
19.01.2019 00:00:00 -5,1 -7,0 0 0 - - N 1020,4 10 -
18.01.2019 23:00:00 -2,8 -5,0 0 0 - - N 1020,1 10 -
18.01.2019 22:00:00 -3,0 -5,0 5 3 - - E 1020,5 10 -
18.01.2019 21:00:00 -2,5 -5,0 5 3 - - E 1020,4 10 -
18.01.2019 20:00:00 -3,0 -4,0 5 3 - - E 1020,5 10 -
18.01.2019 19:00:00 -2,0 -3,0 5 3 - - ENE 1020,8 10 -
18.01.2019 18:00:00 -2,0 -3,0 5 3 - - NE 1020,8 10 -
18.01.2019 17:00:00 1,4 0,5 0 0 - - N 1020,9 10 -
18.01.2019 16:00:00 2,0 1,0 0 0 - - N 1020,9 10 -
18.01.2019 15:00:00 3,0 1,0 0 0 - - N 1020,8 10 -
18.01.2019 14:00:00 3,0 0,0 0 0 - - N 1020,8 10 -
18.01.2019 13:00:00 2,0 1,0 8 4 - - W 1021,1 10 -
18.01.2019 12:00:00 2,4 2,4 13 7 - - W 1021,5 10 -
18.01.2019 11:00:00 1,0 0,0 9 5 - - W 1021,6 10 -
18.01.2019 10:00:00 0,0 -1,0 5 3 - - W 1021,2 10 0,0
18.01.2019 09:00:00 -0,9 -3,0 0 0 - - N 1020,3 10 -
18.01.2019 08:00:00 -1,1 -3,0 0 0 - - N 1019,9 10 -
18.01.2019 07:00:00 -1,0 -3,0 0 0 - - N 1019,2 10 -
18.01.2019 06:00:00 0,5 -1,0 8 4 - - WSW 1018,0 10 -
18.01.2019 05:00:00 0,6 -1,0 11 6 - - W 1017,4 10 -
18.01.2019 04:00:00 0,7 -1,0 15 8 - - WSW 1017,2 10 -
18.01.2019 03:00:00 1,1 -1,0 11 6 - - WSW 1016,6 10 -
18.01.2019 02:00:00 0,9 -1,0 15 8 - - SW 1015,8 10 -
18.01.2019 01:00:00 1,0 -2,0 9 5 - - WSW 1015,1 10 -
18.01.2019 00:00:00 1,5 -1,0 15 8 - - WSW 1014,4 10 -
17.01.2019 23:00:00 1,4 -2,0 18 10 - - WSW 1013,8 10 -
17.01.2019 22:00:00 1,3 1,3 18 10 - - WSW 1013,2 10 -
17.01.2019 21:00:00 1,0 0,0 21 11 - - W - 10 -
17.01.2019 20:00:00 3,0 2,0 16 9 - - WSW 1011,3 10 0,0
17.01.2019 19:00:00 3,0 2,0 15 8 - - WSW 1010,7 10 0,8
17.01.2019 18:00:00 3,0 2,0 18 10 - - SW 1009,6 10 -
17.01.2019 17:00:00 3,0 3,0 26 14 - - W 1008,3 10 0,3
17.01.2019 16:00:00 4,0 4,0 28 15 55 30 WSW - 10 0,5
17.01.2019 15:00:00 6,0 5,0 28 15 52 28 SW - 10 0,3
17.01.2019 14:00:00 6,0 6,0 28 15 54 29 WSW 1005,8 10 0,0
17.01.2019 13:00:00 6,0 5,0 28 15 52 28 WSW 1005,7 10 0,3
17.01.2019 12:00:00 6,0 6,0 34 18 52 28 WSW 1006,1 9 0,3
17.01.2019 11:00:00 6,0 5,0 18 10 - - WSW 1006,8 10 -
17.01.2019 10:00:00 5,0 5,0 21 11 - - WSW 1006,5 10 0,3
17.01.2019 09:00:00 5,5 5,5 16 9 - - W 1006,0 10 0,5
17.01.2019 08:00:00 5,5 5,5 16 9 - - SW 1005,0 10 0,5
17.01.2019 07:00:00 5,5 5,5 15 8 - - SW 1005,4 10 0,8
17.01.2019 06:00:00 5,2 5,2 16 9 - - SW 1005,4 10 0,5
17.01.2019 05:00:00 4,9 4,9 24 13 - - SW 1006,1 10 0,3
17.01.2019 04:00:00 5,0 5,0 18 10 - - SW 1007,1 10 0,0
17.01.2019 03:00:00 5,0 5,0 24 13 - - SW 1007,4 10 -
17.01.2019 02:00:00 5,0 5,0 22 12 - - SW 1007,4 10 -
17.01.2019 01:00:00 5,0 4,9 16 9 - - SW 1007,5 10 -
17.01.2019 00:00:00 4,8 4,7 16 9 - - SW 1007,8 10 -
16.01.2019 23:00:00 4,9 4,6 15 8 - - SW 1007,8 10 -
16.01.2019 22:00:00 5,6 5,0 16 9 - - SW 1008,5 10 -
16.01.2019 21:00:00 5,1 4,4 21 11 - - SW 1008,6 10 -
16.01.2019 20:00:00 5,0 4,1 16 9 - - SW 1009,0 10 -
16.01.2019 19:00:00 4,9 4,3 11 6 - - SW 1008,9 10 -
16.01.2019 18:00:00 4,6 4,5 11 6 - - WSW 1009,5 10 -
16.01.2019 17:00:00 4,8 4,4 9 5 - - WSW 1009,9 10 -
16.01.2019 16:00:00 5,6 4,7 13 7 - - WSW 1010,9 10 -
16.01.2019 15:00:00 6,3 5,1 16 9 - - WSW 1011,2 10 -
16.01.2019 14:00:00 6,0 5,1 11 6 - - SW 1012,2 10 -
16.01.2019 13:00:00 5,6 4,7 15 8 - - SW 1013,3 10 -
16.01.2019 12:00:00 4,9 4,6 13 7 - - SW 1014,3 10 -
16.01.2019 11:00:00 4,4 4,3 15 8 - - SW 1015,4 10 -
16.01.2019 10:00:00 3,8 3,7 13 7 - - SW - 10 -
16.01.2019 09:00:00 3,6 3,5 9 5 - - SSW - 10 -
16.01.2019 08:00:00 3,9 3,8 13 7 - - SW - 10 -
16.01.2019 07:00:00 4,0 3,9 9 5 - - SW - 10 -
16.01.2019 06:00:00 4,2 4,1 15 8 - - SSW 1017,0 10 -
16.01.2019 05:00:00 4,3 4,2 9 5 - - SW 1017,7 10 -
16.01.2019 04:00:00 4,5 4,4 9 5 - - WSW 1018,4 10 -

tt = temperature
td = dewpoint
ff = wind speed
fx = gusts
dd = wind direction
ppp = reduced air pressure
vv = visibility
rr = precipitation

Next stations